Wetbulb
71.56 73.56 76.59 76.04 76.45 77.09 78.23 78.41 78.81 79.04 79.07 78.99 78.94 78.57 78.12 77.91 78.04 78.21 77.81 77.12 77.20 76.93 76.65 76.51 76.24 76.13 75.58 75.42 75.49 76.19 75.38 75.44 75.38 75.34 74.41 74.86 75.13 74.91 75.13 75.73 75.52 72.21 73.89
72.37 73.83 76.19 76.83 76.84 78.02 78.39 78.75 78.89 78.81 78.78 78.96 78.70 78.30 77.68 77.38 77.62 77.82 77.54 76.92 76.81 76.79 76.71 76.46 76.02 76.08 75.72 75.56 75.54 75.92 75.21 75.48 75.58 74.93 74.19 74.01 74.71 74.96 75.44 75.48 74.92 72.96 75.31
72.34 73.58 74.60 76.65 77.33 77.81 78.37 78.75 78.59 78.50 78.24 78.80 78.77 78.18 77.45 77.29 77.34 77.35 77.06 77.00 76.58 76.39 76.44 76.50 76.25 75.86 75.72 75.61 75.48 75.39 74.84 74.66 75.00 74.73 74.05 71.35 72.31 75.52 75.90 75.41 74.26 74.99 75.17
72.89 73.18 74.36 76.64 77.42 77.73 78.13 78.39 78.48 78.07 77.65 78.86 78.69 78.23 77.66 77.57 77.27 77.18 76.77 76.63 76.38 76.38 76.50 76.25 76.11 75.89 75.39 75.16 75.69 75.30 74.89 74.90 74.71 74.68 72.68 72.23 72.56 75.09 75.09 74.87 74.04 74.14 74.83
72.44 73.62 74.64 77.69 77.83 77.71 77.90 78.16 78.41 78.27 77.73 78.27 77.85 77.29 77.30 77.34 77.07 76.74 76.63 76.44 76.41 76.36 76.27 76.25 76.00 75.80 75.45 75.04 75.38 75.40 75.31 75.48 75.51 74.54 71.90 70.23 70.57 74.77 75.26 75.08 74.56 75.11 74.99
72.74 74.16 76.71 77.91 77.01 77.61 77.52 77.76 77.48 77.29 77.29 77.85 77.56 77.27 77.07 77.18 76.78 76.59 76.56 76.45 76.39 76.53 76.69 76.01 75.53 75.48 75.23 75.01 75.34 75.39 76.07 77.10 74.18 70.01 70.46 73.10 71.33 74.92 74.81 75.43 74.93 74.54 74.93
72.88 74.85 75.69 77.96 78.05 77.76 77.85 77.37 77.49 76.87 77.33 77.71 77.45 77.15 77.02 77.16 76.70 76.32 76.21 76.35 76.46 76.26 76.73 76.01 75.35 74.96 75.04 75.09 75.31 75.73 76.92 76.02 72.22 72.09 71.33 71.62 72.19 75.83 75.82 75.30 74.51 74.92 74.03
73.82 75.13 75.90 77.88 78.32 78.05 77.39 77.03 76.94 77.01 77.57 77.58 77.59 77.31 77.12 77.21 76.67 76.26 75.93 75.71 75.87 76.10 75.99 75.93 75.26 75.15 74.85 74.60 75.23 76.19 77.03 75.32 73.08 71.64 72.59 72.21 75.33 76.32 75.44 75.17 75.00 74.75 73.90
74.43 74.63 74.95 75.40 76.20 77.85 78.47 77.26 76.82 76.87 77.51 77.57 77.51 77.41 77.19 76.90 76.61 76.04 75.71 75.51 75.48 75.54 75.59 75.82 75.40 75.07 75.34 75.01 75.73 75.83 75.06 74.44 70.43 72.11 72.12 72.30 75.95 75.90 75.24 75.35 74.76 75.01 74.11
73.31 74.12 74.05 74.08 75.08 75.55 76.02 77.39 77.02 76.87 77.35 77.41 77.14 77.17 77.14 76.91 76.62 76.21 77.28 76.84 76.26 75.76 75.59 75.43 75.71 76.39 76.60 76.63 76.27 75.29 74.99 72.31 68.59 69.09 70.30 71.27 74.97 74.59 74.92 75.31 74.38 74.68 74.58
72.64 73.41 73.78 73.84 74.33 74.10 74.10 75.33 76.98 77.15 77.33 77.23 76.63 76.96 77.09 74.36 73.75 74.96 76.26 76.80 76.85 76.29 76.24 75.93 76.13 75.20 76.39 76.38 75.66 74.43 73.40 69.76 70.48 70.98 72.48 73.76 75.30 74.16 73.85 75.06 74.89 74.72 74.88
71.04 72.25 73.37 73.72 73.94 73.36 75.12 73.42 73.43 74.21 74.27 73.78 73.77 73.60 74.68 73.82 71.72 73.59 76.03 77.42 76.99 76.60 76.77 75.90 76.01 73.52 72.01 72.45 73.76 74.11 69.96 70.20 69.88 68.59 72.20 73.43 75.28 75.56 75.63 74.98 75.58 75.00 74.86
71.23 72.62 73.28 73.53 73.59 72.82 73.14 72.74 72.71 72.71 72.45 72.34 72.23 72.39 73.27 74.08 72.54 73.85 74.22 74.56 71.97 74.85 72.78 74.81 74.30 72.06 71.96 71.97 72.86 70.96 69.16 67.26 66.43 67.14 70.47 75.45 76.11 75.49 74.85 75.82 75.28 75.18 75.01
71.23 71.88 72.83 73.46 73.61 72.49 71.82 72.87 72.03 72.26 72.16 71.71 71.95 72.11 72.61 72.44 72.01 72.07 72.86 72.04 72.36 72.63 72.96 73.24 72.29 71.85 72.00 72.17 71.40 71.77 70.56 67.58 69.71 70.98 71.13 75.52 76.22 76.10 75.77 74.59 75.21 75.08 74.88
70.81 71.98 72.29 73.38 73.45 72.69 71.87 71.76 71.27 72.18 72.24 72.17 72.01 72.85 72.99 70.86 71.28 72.12 72.76 72.82 72.58 73.70 72.79 72.22 71.58 71.59 71.82 71.21 71.75 71.05 70.23 71.43 71.43 71.48 69.73 75.70 76.05 76.74 76.87 75.53 74.53 74.70 75.08
70.78 70.97 72.01 71.43 73.09 72.67 72.38 70.68 71.38 72.66 72.89 72.96 73.20 73.21 73.50 71.72 72.39 72.06 72.58 72.01 72.62 72.22 72.56 73.24 71.52 71.81 71.40 73.42 72.59 71.16 70.43 68.94 71.25 71.38 71.56 72.52 76.40 76.34 76.81 76.34 75.81 75.19 74.84
69.92 71.20 71.24 71.39 72.62 72.20 72.18 71.77 73.33 74.16 74.06 73.10 72.90 73.09 73.14 72.64 72.78 72.29 72.12 71.86 72.12 72.69 72.50 72.18 71.32 71.72 72.00 71.43 68.25 68.90 69.93 67.88 68.03 72.06 71.25 71.40 73.01 76.31 77.25 77.14 76.30 75.77 75.34
70.49 70.94 72.25 73.11 72.94 72.16 72.62 73.39 72.32 72.05 71.40 71.60 72.98 73.33 73.36 73.81 73.34 72.57 72.00 71.64 73.18 73.58 73.18 71.29 70.23 68.87 66.57 64.28 62.57 63.35 63.61 64.56 66.43 68.21 71.07 71.38 71.84 72.38 74.93 75.91 76.37 76.48 75.78
70.29 71.05 71.71 72.43 73.08 72.42 72.27 73.10 71.93 71.36 71.45 71.53 72.21 72.64 72.81 73.96 73.93 72.54 71.98 72.55 72.76 72.39 71.63 70.99 68.99 67.79 63.64 62.66 63.09 63.91 64.32 65.73 66.20 68.35 66.84 68.16 69.63 72.11 71.66 74.91 75.24 75.52 75.22
70.28 71.54 72.11 71.94 72.15 72.16 72.24 72.74 71.94 71.55 72.42 72.70 70.94 72.07 72.46 74.07 74.25 72.68 71.92 72.25 72.07 71.28 70.66 69.09 68.32 66.07 63.52 64.22 66.35 64.38 64.11 64.68 67.24 66.42 65.87 69.47 68.98 71.47 71.99 72.73 71.43 72.10 74.88
70.83 71.36 71.88 71.66 71.54 71.46 71.76 71.51 71.12 70.67 71.55 72.56 71.57 73.02 74.02 73.66 74.56 72.94 71.71 72.02 71.67 70.72 69.71 69.15 64.96 62.25 62.38 64.12 60.38 61.62 63.88 63.97 64.25 63.49 64.11 66.23 70.12 70.65 70.15 70.27 70.69 71.42 73.46
69.87 70.89 70.84 71.53 72.00 71.82 72.40 72.29 71.58 71.21 71.94 71.83 72.24 73.49 73.37 73.51 73.82 72.52 71.91 71.34 71.75 71.18 68.94 65.12 63.71 61.72 63.33 63.99 59.62 60.54 59.39 62.01 63.87 63.44 62.14 65.59 67.29 69.26 69.14 69.40 69.81 70.23 69.64
69.11 70.52 70.67 71.29 72.30 72.36 72.86 72.59 71.79 71.55 71.62 71.37 71.33 71.69 72.26 74.25 73.59 72.90 71.81 71.22 71.25 69.82 65.44 64.63 63.90 62.22 61.67 63.66 61.29 61.33 58.03 57.67 62.43 64.31 62.44 64.74 65.03 65.06 65.13 64.99 67.43 69.42 68.44
69.67 70.96 70.86 71.27 73.13 72.92 73.13 72.58 71.68 70.52 69.39 70.23 71.53 73.10 72.49 73.80 73.77 73.26 72.10 71.16 68.76 68.60 65.46 64.83 65.83 64.79 61.59 60.53 63.55 63.80 61.37 60.65 58.85 57.93 61.91 60.78 60.98 63.23 61.95 61.23 61.56 66.99 67.53
70.06 70.77 71.34 71.30 73.05 73.39 73.26 72.86 72.15 70.64 70.72 70.46 70.21 71.10 71.49 72.63 73.32 73.48 72.36 70.70 67.75 67.23 65.90 65.72 64.16 65.12 64.32 63.08 63.10 63.01 60.26 60.60 58.43 58.07 56.15 58.94 60.82 60.54 60.59 60.86 60.53 61.56 66.32
70.14 71.00 71.31 71.16 72.35 73.32 73.35 72.70 71.88 71.08 69.91 69.19 68.83 70.02 71.34 72.33 71.89 72.57 72.36 69.44 67.38 67.07 66.64 65.70 63.85 64.50 64.79 64.10 63.07 61.77 59.43 59.30 58.61 58.72 55.89 56.14 57.28 59.68 60.24 59.37 60.26 60.32 62.59
MSLP
1015.23 1014.80 1014.57 1014.72 1015.04 1015.41 1015.62 1015.64 1015.76 1016.01 1016.31 1016.47 1016.39 1016.56 1016.71 1016.91 1017.06 1016.98 1017.12 1017.38 1017.37 1017.30 1017.30 1017.40 1017.49 1017.47 1017.43 1017.50 1017.68 1017.72 1017.79 1017.81 1017.80 1017.77 1017.85 1017.93 1017.88 1017.86 1017.87 1017.89 1017.93 1017.95 1017.90
1014.97 1014.99 1014.95 1015.02 1015.27 1015.54 1015.86 1016.00 1016.07 1016.31 1016.43 1016.41 1016.57 1016.77 1017.02 1017.23 1017.23 1017.27 1017.42 1017.49 1017.48 1017.50 1017.51 1017.62 1017.69 1017.67 1017.53 1017.72 1017.73 1017.80 1017.96 1017.86 1017.89 1017.95 1017.98 1018.11 1018.08 1017.93 1018.03 1018.28 1018.34 1018.23 1018.11
1015.28 1015.34 1015.42 1015.45 1015.55 1015.78 1016.05 1016.18 1016.39 1016.44 1016.58 1016.74 1016.90 1017.10 1017.30 1017.45 1017.52 1017.56 1017.64 1017.66 1017.69 1017.66 1017.65 1017.78 1017.86 1017.84 1017.74 1017.70 1017.72 1017.68 1017.86 1017.87 1017.96 1018.00 1018.19 1018.41 1018.42 1018.19 1018.28 1018.45 1018.68 1018.62 1018.51
1015.31 1015.59 1015.73 1015.76 1015.90 1016.08 1016.27 1016.41 1016.62 1016.62 1016.88 1017.00 1017.19 1017.38 1017.52 1017.67 1017.73 1017.77 1017.82 1017.88 1017.90 1017.91 1017.92 1017.99 1017.93 1017.92 1017.89 1017.72 1017.80 1017.96 1017.92 1017.96 1018.02 1018.08 1018.37 1018.43 1018.50 1018.61 1018.62 1018.76 1018.92 1019.06 1019.00
1015.48 1015.71 1015.78 1015.90 1016.12 1016.33 1016.48 1016.76 1016.88 1016.97 1017.11 1017.20 1017.38 1017.64 1017.78 1017.86 1017.87 1017.95 1018.12 1018.14 1018.12 1017.96 1017.96 1018.03 1017.96 1017.97 1017.89 1017.86 1017.99 1018.01 1017.89 1017.82 1017.81 1017.89 1018.29 1018.50 1018.70 1018.75 1018.85 1019.03 1019.16 1019.16 1019.39
1015.60 1015.78 1015.84 1015.96 1016.22 1016.47 1016.71 1016.99 1017.08 1017.19 1017.35 1017.42 1017.58 1017.76 1017.87 1017.91 1018.05 1018.16 1018.13 1018.15 1018.19 1018.14 1018.10 1018.15 1018.19 1018.08 1018.01 1018.00 1017.95 1017.89 1017.69 1017.60 1017.89 1018.16 1018.36 1018.47 1018.71 1018.66 1018.89 1019.05 1019.22 1019.46 1019.58
1015.67 1015.86 1015.97 1016.12 1016.37 1016.59 1016.86 1017.09 1017.21 1017.33 1017.42 1017.53 1017.75 1017.90 1017.92 1018.04 1018.15 1018.16 1018.16 1018.09 1018.04 1018.22 1018.19 1018.18 1018.24 1018.14 1018.00 1018.05 1018.01 1017.92 1017.63 1017.89 1017.83 1018.47 1018.73 1018.74 1018.84 1018.88 1018.82 1019.10 1019.23 1019.66 1019.85
1015.60 1015.90 1016.06 1016.27 1016.42 1016.65 1016.96 1017.20 1017.30 1017.36 1017.48 1017.72 1017.86 1017.93 1017.94 1018.07 1018.13 1018.12 1018.10 1018.10 1018.13 1018.28 1018.30 1018.25 1018.31 1018.29 1018.21 1018.15 1018.10 1018.06 1017.90 1018.19 1018.13 1018.13 1018.71 1018.71 1018.85 1018.97 1019.13 1019.22 1019.25 1019.49 1020.01
1015.52 1015.88 1016.11 1016.30 1016.44 1016.69 1016.99 1017.23 1017.33 1017.35 1017.60 1017.78 1017.90 1017.96 1018.04 1018.15 1018.06 1018.07 1018.07 1018.05 1018.09 1018.20 1018.32 1018.32 1018.39 1018.34 1018.11 1018.12 1018.34 1018.35 1018.07 1018.21 1018.47 1018.49 1018.60 1018.99 1018.94 1019.01 1019.18 1019.31 1019.47 1019.50 1019.92
1015.68 1015.93 1016.19 1016.32 1016.40 1016.73 1017.05 1017.22 1017.26 1017.41 1017.62 1017.83 1017.93 1017.89 1017.95 1017.93 1018.01 1018.11 1018.02 1017.98 1018.10 1018.19 1018.30 1018.21 1018.31 1018.24 1018.02 1018.13 1018.40 1018.39 1017.96 1018.14 1018.13 1018.31 1018.64 1019.01 1019.07 1019.21 1019.24 1019.34 1019.58 1019.76 1019.99
1015.84 1016.10 1016.22 1016.34 1016.55 1016.85 1017.13 1017.21 1017.23 1017.44 1017.59 1017.75 1017.70 1017.72 1017.83 1017.99 1018.13 1018.20 1018.15 1018.06 1017.99 1018.09 1018.14 1018.02 1018.09 1018.13 1018.01 1018.00 1018.22 1018.29 1017.96 1018.43 1018.39 1018.55 1018.63 1018.71 1019.05 1019.22 1019.41 1019.47 1019.54 1019.74 1019.98
1015.70 1015.98 1016.13 1016.23 1016.50 1016.88 1016.93 1017.12 1017.22 1017.37 1017.48 1017.60 1017.58 1017.67 1017.76 1017.91 1018.09 1018.22 1018.10 1017.83 1017.87 1018.08 1018.05 1018.02 1018.01 1017.94 1018.01 1018.20 1018.39 1018.13 1018.02 1018.52 1018.65 1018.81 1018.87 1019.01 1019.12 1019.32 1019.41 1019.54 1019.64 1019.90 1020.02
1014.98 1015.52 1015.83 1016.07 1016.31 1016.62 1016.72 1016.96 1017.17 1017.20 1017.36 1017.47 1017.44 1017.52 1017.61 1017.65 1018.05 1018.03 1018.12 1017.76 1017.98 1018.13 1018.17 1018.04 1018.05 1017.89 1017.90 1017.88 1018.39 1018.46 1018.32 1018.53 1018.48 1018.74 1018.63 1018.76 1019.06 1019.18 1019.35 1019.55 1019.75 1020.00 1020.21
1014.61 1014.82 1015.31 1015.55 1015.90 1016.30 1016.49 1016.57 1016.77 1017.03 1017.18 1017.32 1017.16 1017.21 1017.46 1017.65 1017.77 1017.84 1017.88 1017.99 1018.11 1018.21 1017.98 1018.07 1018.24 1017.97 1017.83 1017.78 1017.87 1017.96 1018.13 1018.36 1018.37 1018.45 1018.61 1018.56 1018.80 1019.03 1019.17 1019.52 1019.75 1019.95 1020.14
1014.16 1014.31 1014.79 1015.28 1015.61 1015.75 1016.13 1016.45 1016.59 1016.69 1016.82 1016.84 1016.94 1017.00 1017.19 1017.50 1017.58 1017.38 1017.45 1017.98 1018.05 1017.87 1017.70 1018.00 1018.09 1018.17 1018.04 1017.81 1017.41 1017.44 1017.83 1017.89 1018.05 1018.20 1018.24 1018.17 1018.51 1018.67 1018.90 1019.36 1019.68 1019.92 1020.05
1013.49 1013.80 1014.26 1014.79 1014.98 1015.25 1015.77 1016.17 1016.20 1016.18 1016.29 1016.45 1016.52 1016.58 1016.88 1017.19 1017.09 1017.23 1017.43 1017.65 1017.63 1017.74 1017.85 1017.91 1018.12 1018.07 1017.99 1017.61 1017.44 1017.34 1017.34 1017.53 1017.75 1017.96 1017.93 1018.04 1018.25 1018.56 1018.84 1019.10 1019.42 1019.70 1020.02
1012.71 1013.04 1013.64 1014.22 1014.51 1015.07 1015.36 1015.51 1015.69 1015.61 1015.75 1015.99 1016.11 1016.27 1016.54 1016.76 1016.73 1016.90 1017.07 1017.21 1017.27 1017.41 1017.59 1017.86 1017.85 1017.93 1017.78 1017.67 1017.87 1017.58 1017.40 1017.45 1017.60 1017.75 1017.78 1018.09 1018.23 1018.29 1018.62 1018.92 1019.25 1019.53 1019.48
1012.10 1012.65 1013.16 1013.70 1014.26 1014.67 1015.04 1015.02 1015.32 1015.52 1015.66 1015.67 1015.70 1015.96 1016.14 1016.47 1016.64 1016.82 1017.06 1017.15 1017.10 1017.17 1017.42 1017.78 1018.05 1018.13 1018.06 1018.10 1018.11 1018.10 1017.65 1017.71 1017.61 1017.51 1017.91 1018.01 1018.30 1018.26 1018.35 1018.77 1019.05 1019.28 1019.55
1011.54 1012.03 1012.73 1013.25 1013.84 1014.25 1014.62 1014.61 1014.71 1015.02 1015.28 1015.65 1015.56 1015.67 1015.91 1016.17 1016.34 1016.58 1016.91 1017.00 1017.02 1017.34 1017.50 1017.76 1017.98 1018.06 1018.24 1018.27 1018.14 1017.95 1017.97 1017.73 1017.34 1017.10 1017.75 1017.91 1018.11 1018.33 1018.63 1018.74 1018.83 1018.97 1019.10
1010.98 1011.39 1011.81 1012.64 1013.28 1013.88 1014.18 1014.41 1014.59 1014.93 1015.01 1015.20 1015.35 1015.47 1015.58 1015.91 1016.17 1016.48 1016.69 1016.79 1017.05 1017.47 1017.67 1017.81 1018.08 1018.17 1018.30 1018.30 1018.08 1017.95 1018.16 1017.96 1017.43 1017.26 1017.55 1017.44 1017.66 1018.22 1018.57 1018.84 1019.08 1019.12 1019.11
1010.64 1011.01 1011.35 1012.03 1012.73 1013.41 1014.04 1014.44 1014.77 1014.94 1015.00 1015.06 1015.06 1015.12 1015.31 1015.55 1015.86 1016.25 1016.51 1016.63 1016.90 1017.28 1017.47 1017.87 1018.19 1018.39 1018.45 1018.43 1018.56 1018.52 1018.60 1018.21 1018.09 1018.16 1017.96 1017.84 1018.10 1018.42 1018.69 1018.99 1019.08 1019.25 1019.22
1009.75 1010.34 1010.87 1011.42 1012.24 1012.95 1013.24 1013.75 1014.18 1014.43 1014.53 1014.58 1014.76 1014.93 1014.97 1015.28 1015.45 1015.93 1016.19 1016.64 1016.79 1017.18 1017.59 1017.86 1018.09 1018.53 1018.55 1018.37 1018.86 1019.19 1019.23 1019.04 1018.75 1018.69 1018.64 1018.47 1018.61 1018.58 1018.82 1018.99 1019.14 1019.29 1019.42
1008.75 1009.47 1010.07 1010.75 1011.51 1012.19 1012.76 1013.47 1014.05 1014.39 1014.57 1014.69 1014.78 1014.80 1014.79 1014.90 1015.34 1015.64 1015.89 1016.22 1016.63 1017.01 1017.47 1017.65 1017.87 1018.17 1018.51 1018.52 1018.44 1018.69 1019.46 1019.37 1019.04 1018.96 1019.04 1018.79 1018.97 1019.02 1019.07 1019.09 1019.21 1019.33 1019.41
1007.56 1008.43 1009.17 1009.95 1010.72 1011.45 1012.10 1012.79 1013.42 1013.83 1014.24 1014.18 1014.23 1014.30 1014.39 1014.61 1015.04 1015.35 1015.67 1016.04 1016.28 1016.83 1017.20 1017.42 1017.69 1017.94 1018.33 1018.63 1018.61 1018.44 1018.50 1018.69 1019.26 1019.62 1019.32 1019.35 1019.30 1019.36 1019.36 1019.42 1019.34 1019.29 1019.39
1006.56 1007.52 1008.25 1008.95 1009.92 1010.62 1011.29 1011.86 1012.57 1013.16 1013.42 1013.41 1013.79 1014.11 1014.35 1014.51 1014.63 1014.94 1015.47 1015.89 1016.28 1016.56 1016.92 1017.25 1017.71 1017.93 1018.18 1018.55 1018.79 1018.84 1018.92 1019.00 1019.13 1019.49 1019.85 1019.69 1019.65 1019.31 1019.31 1019.26 1019.31 1019.47 1019.46
1005.68 1006.66 1007.55 1008.39 1009.16 1009.82 1010.49 1011.08 1011.59 1012.21 1012.75 1013.14 1013.54 1013.99 1014.26 1014.34 1014.54 1014.68 1015.15 1015.50 1015.90 1016.38 1016.76 1017.10 1017.46 1017.80 1018.10 1018.33 1018.56 1018.77 1018.85 1019.13 1019.43 1019.59 1019.98 1020.00 1019.85 1019.39 1019.28 1019.12 1019.21 1019.38 1019.39
Wind_Speed
4 7 14 18 19 20 18 19 18 19 18 17 18 17 17 15 15 15 13 11 12 12 11 11 9 8 7 8 10 12 11 11 11 12 12 10 11 10 10 13 13 10 13
7 7 15 17 18 18 18 18 18 17 17 17 17 17 16 15 14 13 11 11 11 10 10 10 9 8 7 7 9 9 8 9 10 10 10 9 7 8 12 12 12 10 13
8 9 11 16 17 19 18 17 17 17 16 16 16 16 15 14 13 13 10 10 9 9 9 8 8 7 6 6 7 7 6 5 9 9 10 5 3 14 14 13 11 11 13
10 7 8 16 17 18 18 16 16 17 16 14 15 14 13 13 12 11 10 9 9 8 8 7 7 6 5 4 6 6 5 4 4 7 5 4 6 10 12 11 11 11 11
10 7 10 16 17 18 17 16 15 15 15 14 14 13 13 12 11 10 9 9 8 7 6 6 5 5 3 4 6 6 6 4 3 6 6 5 4 9 13 11 12 11 11
11 10 14 17 18 17 17 16 16 15 14 13 13 12 11 11 10 9 8 7 6 5 6 5 4 3 3 4 5 6 7 10 11 7 6 7 5 11 11 12 13 9 11
11 9 12 17 17 16 16 16 15 14 13 13 12 11 10 10 9 7 7 6 5 4 5 4 3 2 2 3 5 7 7 15 9 4 4 5 5 10 14 13 13 11 11
12 9 11 17 17 16 16 16 14 13 13 12 11 10 9 8 7 5 4 3 2 3 3 3 2 2 2 2 4 7 12 14 7 7 4 5 8 12 12 14 13 13 12
12 10 9 10 14 18 16 16 14 13 13 12 11 9 8 7 6 5 3 2 2 1 1 2 2 2 0 2 8 13 12 13 6 2 4 2 9 13 13 13 12 13 13
11 9 7 6 6 7 9 16 15 13 13 12 10 9 8 8 6 5 5 6 5 3 1 1 1 2 2 2 14 12 11 14 5 5 2 3 7 12 14 14 13 12 11
10 10 8 6 6 6 6 9 13 14 13 12 10 10 7 3 3 4 6 7 6 4 4 2 1 3 2 1 14 11 11 3 1 3 2 9 10 13 13 13 13 12 12
13 12 11 9 9 7 7 6 6 6 5 5 5 5 4 4 4 4 7 9 8 5 5 2 2 4 1 1 3 9 3 4 3 2 3 9 11 13 12 12 13 12 13
16 12 13 12 10 10 7 5 3 3 3 4 6 6 5 4 3 3 3 3 2 5 1 1 1 2 3 2 4 4 3 3 2 3 4 10 14 14 13 13 12 13 12
16 16 15 14 12 11 6 7 5 4 4 4 5 6 4 3 3 4 3 2 3 3 4 3 2 2 3 4 3 5 5 3 2 2 5 10 12 13 13 13 13 13 12
16 16 16 14 13 12 9 5 4 6 5 6 4 5 5 4 4 4 5 3 4 3 3 4 3 0 2 3 3 2 5 6 4 3 3 13 13 12 12 13 14 14 14
17 17 16 15 14 12 10 7 6 6 6 6 5 6 6 4 3 4 4 3 2 3 4 4 3 2 2 1 4 4 2 3 6 5 4 5 13 12 14 13 15 15 15
16 17 18 15 14 12 11 9 7 7 8 6 7 6 6 6 5 4 3 2 1 2 3 2 2 1 2 2 2 4 3 2 6 6 5 3 5 13 13 14 14 14 16
15 16 16 14 14 12 9 9 5 5 4 5 6 6 7 6 6 5 3 2 1 1 3 2 1 1 2 2 2 3 4 1 5 6 5 4 4 4 9 13 13 12 12
16 17 15 16 15 14 8 6 6 6 4 4 3 5 7 6 6 5 4 3 3 3 2 2 0 2 1 2 2 2 3 2 4 5 6 5 6 5 3 8 10 10 11
15 17 18 14 14 13 7 5 3 3 4 3 4 5 7 6 6 5 3 3 4 3 3 2 2 1 1 1 1 2 1 2 4 4 4 3 4 6 5 4 2 2 6
14 16 18 17 14 10 4 4 3 4 3 3 4 6 8 6 7 6 4 4 4 5 5 3 2 2 1 1 2 3 3 3 4 5 2 5 6 5 6 4 2 2 3
18 18 17 17 15 11 8 6 3 4 3 3 3 4 6 7 7 6 6 5 5 3 5 4 3 1 0 1 3 2 3 3 3 3 1 5 6 5 5 5 5 5 4
21 20 20 18 18 15 12 6 2 2 1 2 3 3 6 7 6 6 6 5 5 4 5 4 4 4 2 2 2 4 2 3 1 1 2 4 5 3 3 5 5 5 5
22 19 19 17 18 15 15 12 12 7 6 5 4 5 6 8 7 7 6 5 6 4 6 5 4 3 3 2 2 2 2 3 3 1 1 1 2 4 5 3 4 5 6
21 19 19 18 17 17 17 15 12 9 7 4 3 6 5 6 7 8 7 6 6 5 5 6 4 4 2 2 2 1 2 3 3 3 2 2 1 3 3 4 4 4 5
20 19 18 19 18 18 18 17 17 15 9 5 4 4 5 6 7 6 7 8 6 6 6 5 5 5 4 3 2 1 2 3 2 2 2 1 2 3 3 3 4 4 4
Wind_Direction
154 134 126 125 123 125 121 114 110 109 111 110 105 105 102 104 106 100 99 104 97 94 91 87 82 84 83 94 97 92 94 94 95 94 91 99 103 109 121 113 110 105 106
135 133 127 127 130 125 118 114 111 111 109 105 105 104 108 110 105 105 105 102 96 95 95 96 88 79 72 75 84 99 101 109 94 93 88 105 104 127 128 116 112 119 118
133 133 126 129 128 122 118 114 114 113 112 112 109 113 118 116 114 111 112 104 96 88 82 81 85 82 79 81 87 97 104 84 98 104 98 92 58 100 116 115 118 110 106
138 135 138 133 132 128 123 120 119 116 118 114 115 120 119 117 114 116 113 105 95 81 71 65 67 67 61 63 72 83 105 122 134 138 125 125 103 114 121 121 119 120 119
142 141 151 136 134 131 128 129 121 120 121 115 119 122 122 123 122 117 112 107 102 92 84 76 70 72 57 46 47 39 85 98 103 169 140 124 119 128 124 124 126 123 117
146 151 146 143 140 138 135 131 129 131 129 128 128 129 132 130 124 120 122 117 104 96 89 78 73 79 66 39 47 43 61 78 86 76 121 126 144 135 134 135 125 130 109
145 151 149 147 144 143 140 138 136 137 139 136 135 140 141 134 131 129 133 134 127 109 88 91 94 93 89 64 53 56 67 86 101 93 112 125 151 153 143 134 130 135 126
143 149 151 149 148 147 148 147 146 146 146 143 148 152 150 148 144 151 145 147 130 116 102 114 107 84 67 73 58 49 85 110 131 134 142 131 157 152 144 140 140 141 135
144 146 146 150 158 158 155 155 156 158 153 156 162 160 161 160 174 176 177 218 221 150 119 96 100 94 28 110 76 77 113 122 97 109 118 160 169 159 152 149 146 143 143
149 144 144 152 150 147 159 161 166 167 165 170 172 176 180 191 197 206 216 231 239 215 149 104 93 165 217 130 105 123 153 144 146 120 158 188 206 176 160 157 153 149 154
152 156 159 157 147 148 159 170 174 173 179 182 187 193 202 207 245 260 256 261 254 189 179 196 175 67 360 22 134 151 175 145 218 133 125 187 199 178 168 166 161 158 158
161 169 169 164 163 160 171 177 178 182 190 192 203 209 213 206 213 214 222 247 240 209 168 159 171 351 54 63 140 167 223 162 198 153 140 225 193 192 177 170 167 165 162
170 171 174 170 172 175 180 180 187 196 194 203 214 201 219 222 204 215 232 205 152 265 199 165 244 303 329 315 133 210 216 183 194 179 198 190 188 196 183 180 177 171 176
175 176 174 176 178 187 184 191 187 187 199 214 217 207 203 225 217 192 196 212 190 241 179 179 219 245 320 303 198 175 179 210 208 201 202 188 195 203 183 189 187 185 191
178 178 178 178 183 189 186 184 185 202 201 214 215 209 202 199 204 168 179 180 188 205 165 170 200 277 257 284 299 126 168 207 203 209 191 201 195 198 193 194 194 196 196
179 181 178 182 186 187 187 174 198 206 214 209 212 222 188 201 149 138 149 170 171 163 153 161 190 189 238 296 328 291 227 169 184 191 189 203 194 203 197 199 198 200 203
183 179 177 184 181 185 183 180 199 214 210 205 208 198 180 184 185 169 174 145 157 116 136 127 82 44 12 347 14 340 299 189 201 197 184 193 203 204 204 207 201 206 205
179 179 180 185 182 183 183 183 180 177 152 198 190 183 195 186 181 161 171 199 212 149 126 119 113 89 69 41 24 316 277 335 186 202 185 193 188 208 204 196 201 206 214
183 179 178 183 181 184 183 183 174 177 182 180 186 174 191 191 186 167 169 206 180 151 131 152 148 131 131 24 274 2 23 312 303 148 153 198 200 196 170 211 202 208 208
185 184 178 181 179 184 180 178 172 166 209 180 192 194 181 186 183 170 176 199 150 144 149 155 125 36 165 231 315 345 338 281 280 73 127 125 165 137 150 174 167 231 215
177 177 179 179 186 180 163 166 169 188 203 213 199 204 184 185 175 190 178 174 159 166 192 162 132 104 331 61 65 334 35 28 53 67 89 98 79 105 121 131 147 143 108
177 184 178 181 183 187 183 182 170 175 202 182 171 212 195 184 179 179 172 191 191 155 144 142 137 145 242 177 138 93 33 9 28 47 49 109 111 124 131 138 140 128 121
185 183 184 178 180 182 181 164 113 68 27 158 201 200 206 196 170 179 184 191 172 146 161 169 150 155 173 314 202 142 96 197 182 53 41 108 135 138 144 148 158 147 155
192 186 181 175 176 179 176 180 189 184 195 215 187 210 186 171 184 181 180 173 150 151 163 174 173 163 122 179 343 12 41 141 151 26 52 300 149 172 170 190 166 170 162
187 187 186 179 174 175 181 184 186 194 202 198 174 196 189 174 184 188 173 161 155 159 171 174 164 160 137 135 163 139 40 35 78 121 223 306 293 237 218 186 173 179 180
191 187 184 182 181 176 179 184 189 194 195 188 204 178 185 183 191 175 163 164 162 160 169 176 174 161 155 135 119 119 153 152 189 123 109 276 237 271 221 212 199 193 197